Location: ??
(35.5052°N, 139.7262°E)
Time: 01:49:43
(UTC+00:00)

OAO 1 - Pass Details

Date: 24 October 2021
Orbit: 773 x 784 km, 35.0° (Epoch: 01 December)

Event Time Altitude Azimuth Distance (km) Brightness Sun altitude
Rises 09:54:47 0° 264° (W) 3,248 9.1 -25.0°
Reaches altitude 10° 09:57:15 10° 264° (W) 2,323 8.0 -25.5°
Maximum altitude 10:02:46 86° 176° (S) 784 4.4 -26.6°
Enters shadow 10:02:49 85° 153° (SSE) 785 4.4 -26.7°
